TimeEDT,TemperatureF,Dew PointF,Humidity,Sea Level PressureIn,VisibilityMPH,Wind Direction,Wind SpeedMPH,Gust SpeedMPH,PrecipitationIn,Events,Conditions,WindDirDegrees,DateUTC
12:15 AM,73.4,71.6,94,30.01,10.0,Calm,Calm,-,N/A,,Clear,0,2013-09-04 04:15:00
12:35 AM,73.4,71.6,94,30.01,10.0,Calm,Calm,-,N/A,,Clear,0,2013-09-04 04:35:00
12:55 AM,73.4,71.6,94,30.00,10.0,West,3.5,-,N/A,,Clear,280,2013-09-04 04:55:00
1:15 AM,73.4,71.6,94,30.00,10.0,Calm,Calm,-,N/A,,Clear,0,2013-09-04 05:15:00
1:35 AM,71.6,71.6,100,29.99,10.0,Calm,Calm,-,N/A,,Clear,0,2013-09-04 05:35:00
1:55 AM,71.6,71.6,100,30.00,7.0,Calm,Calm,-,N/A,,Clear,0,2013-09-04 05:55:00
2:15 AM,71.6,71.6,100,30.00,7.0,Calm,Calm,-,N/A,,Clear,0,2013-09-04 06:15:00
2:35 AM,71.6,71.6,100,29.99,7.0,Calm,Calm,-,N/A,,Clear,0,2013-09-04 06:35:00
2:55 AM,71.6,71.6,100,29.99,7.0,Calm,Calm,-,N/A,,Clear,0,2013-09-04 06:55:00
3:15 AM,71.6,71.6,100,29.99,7.0,Calm,Calm,-,N/A,,Clear,0,2013-09-04 07:15:00
3:35 AM,71.6,71.6,100,30.00,7.0,West,3.5,-,N/A,,Clear,260,2013-09-04 07:35:00
3:55 AM,71.6,71.6,100,30.00,7.0,Calm,Calm,-,N/A,,Clear,0,2013-09-04 07:55:00
4:15 AM,71.6,71.6,100,30.00,7.0,Calm,Calm,-,N/A,,Clear,0,2013-09-04 08:15:00
4:35 AM,71.6,71.6,100,30.00,7.0,Calm,Calm,-,N/A,,Clear,0,2013-09-04 08:35:00
4:55 AM,71.6,71.6,100,30.00,7.0,Calm,Calm,-,N/A,,Clear,0,2013-09-04 08:55:00
5:15 AM,71.6,71.6,100,30.00,7.0,SSW,3.5,-,N/A,,Clear,200,2013-09-04 09:15:00
5:35 AM,71.6,71.6,100,30.01,4.0,Calm,Calm,-,N/A,,Clear,0,2013-09-04 09:35:00
5:55 AM,71.6,71.6,100,30.01,4.0,Calm,Calm,-,N/A,,Clear,0,2013-09-04 09:55:00
6:15 AM,71.6,71.6,100,30.01,4.0,Calm,Calm,-,N/A,,Clear,0,2013-09-04 10:15:00
6:35 AM,71.6,71.6,100,30.02,3.0,Calm,Calm,-,N/A,,Clear,0,2013-09-04 10:35:00
6:55 AM,71.6,71.6,100,30.02,4.0,Calm,Calm,-,N/A,,Clear,0,2013-09-04 10:55:00
7:15 AM,71.6,71.6,100,30.03,2.5,Calm,Calm,-,N/A,,Clear,0,2013-09-04 11:15:00
7:35 AM,71.6,71.6,100,30.04,2.5,Calm,Calm,-,N/A,,Clear,0,2013-09-04 11:35:00
7:55 AM,71.6,71.6,100,30.05,3.0,Calm,Calm,-,N/A,,Clear,0,2013-09-04 11:55:00
8:15 AM,71.6,71.6,100,30.06,4.0,Calm,Calm,-,N/A,,Clear,0,2013-09-04 12:15:00
8:35 AM,73.4,71.6,94,30.06,5.0,Calm,Calm,-,N/A,,Clear,0,2013-09-04 12:35:00
8:55 AM,73.4,73.4,100,30.07,7.0,Calm,Calm,-,N/A,,Clear,0,2013-09-04 12:55:00
9:15 AM,77.0,73.4,89,30.07,7.0,Calm,Calm,-,N/A,,Clear,0,2013-09-04 13:15:00
9:35 AM,77.0,73.4,89,30.08,10.0,Calm,Calm,-,N/A,,Clear,0,2013-09-04 13:35:00
9:55 AM,78.8,73.4,83,30.08,10.0,Calm,Calm,-,N/A,,Clear,0,2013-09-04 13:55:00
10:15 AM,80.6,75.2,84,30.08,10.0,Calm,Calm,-,N/A,,Clear,0,2013-09-04 14:15:00
10:35 AM,80.6,75.2,84,30.09,10.0,Calm,Calm,-,N/A,,Clear,0,2013-09-04 14:35:00
10:55 AM,82.4,75.2,79,30.09,10.0,Calm,Calm,-,N/A,,Clear,0,2013-09-04 14:55:00
11:15 AM,86.0,75.2,70,30.09,10.0,Calm,Calm,-,N/A,,Clear,0,2013-09-04 15:15:00
11:35 AM,86.0,73.4,66,30.09,10.0,Calm,Calm,-,N/A,,Clear,0,2013-09-04 15:35:00
11:55 AM,86.0,71.6,62,30.09,10.0,Calm,Calm,-,N/A,,Clear,0,2013-09-04 15:55:00
12:15 PM,87.8,73.4,62,30.09,10.0,Calm,Calm,-,N/A,,Clear,0,2013-09-04 16:15:00
12:35 PM,89.6,73.4,59,30.08,10.0,Calm,Calm,-,N/A,,Clear,0,2013-09-04 16:35:00
12:55 PM,89.6,71.6,55,30.08,10.0,WSW,3.5,-,N/A,,Clear,250,2013-09-04 16:55:00
1:15 PM,87.8,73.4,62,30.07,10.0,Calm,Calm,-,N/A,,Clear,0,2013-09-04 17:15:00
1:35 PM,87.8,73.4,62,30.07,10.0,Calm,Calm,-,N/A,,Scattered Clouds,0,2013-09-04 17:35:00
1:55 PM,87.8,73.4,62,30.07,10.0,Calm,Calm,-,N/A,,Mostly Cloudy,0,2013-09-04 17:55:00
2:15 PM,89.6,73.4,59,30.06,10.0,SW,3.5,-,N/A,,Scattered Clouds,230,2013-09-04 18:15:00
2:35 PM,91.4,73.4,55,30.06,10.0,SE,3.5,-,N/A,,Scattered Clouds,140,2013-09-04 18:35:00
2:55 PM,91.4,73.4,55,30.06,10.0,Calm,Calm,-,N/A,,Scattered Clouds,0,2013-09-04 18:55:00
3:15 PM,89.6,73.4,59,30.05,10.0,Calm,Calm,-,N/A,,Clear,0,2013-09-04 19:15:00
3:35 PM,89.6,73.4,59,30.04,10.0,Calm,Calm,-,N/A,,Mostly Cloudy,0,2013-09-04 19:35:00
3:55 PM,89.6,73.4,59,30.04,10.0,Calm,Calm,-,N/A,,Mostly Cloudy,0,2013-09-04 19:55:00
4:15 PM,91.4,73.4,55,30.03,10.0,Calm,Calm,-,N/A,,Scattered Clouds,0,2013-09-04 20:15:00
4:35 PM,87.8,73.4,62,30.03,10.0,West,4.6,-,N/A,,Mostly Cloudy,280,2013-09-04 20:35:00
4:55 PM,84.2,77.0,79,30.04,4.0,North,6.9,-,N/A,Rain,Rain,350,2013-09-04 20:55:00
5:15 PM,82.4,78.8,89,30.04,10.0,NNW,6.9,-,N/A,,Mostly Cloudy,330,2013-09-04 21:15:00
5:35 PM,80.6,78.8,94,30.03,10.0,NW,3.5,-,N/A,Thunderstorm,Scattered Clouds,320,2013-09-04 21:35:00
5:55 PM,84.2,77.0,79,30.04,10.0,Calm,Calm,-,N/A,,Clear,0,2013-09-04 21:55:00
6:15 PM,84.2,77.0,79,30.04,10.0,Calm,Calm,-,N/A,Thunderstorm,Clear,0,2013-09-04 22:15:00
6:35 PM,84.2,77.0,79,30.04,10.0,Calm,Calm,-,N/A,,Mostly Cloudy,0,2013-09-04 22:35:00
6:55 PM,82.4,77.0,84,30.04,10.0,SSE,3.5,-,N/A,,Scattered Clouds,150,2013-09-04 22:55:00
7:15 PM,82.4,77.0,84,30.04,10.0,East,6.9,-,N/A,,Scattered Clouds,100,2013-09-04 23:15:00
7:35 PM,80.6,75.2,84,30.04,10.0,Calm,Calm,-,N/A,Thunderstorm,Scattered Clouds,0,2013-09-04 23:35:00
7:55 PM,80.6,77.0,89,30.05,10.0,Calm,Calm,-,N/A,,Clear,0,2013-09-04 23:55:00
8:15 PM,78.8,75.2,89,30.06,10.0,Calm,Calm,-,N/A,,Clear,0,2013-09-05 00:15:00
8:35 PM,78.8,77.0,94,30.06,10.0,Calm,Calm,-,N/A,,Clear,0,2013-09-05 00:35:00
8:55 PM,78.8,75.2,89,30.07,10.0,Calm,Calm,-,N/A,,Scattered Clouds,0,2013-09-05 00:55:00
9:15 PM,77.0,75.2,94,30.08,7.0,East,3.5,-,N/A,,Mostly Cloudy,80,2013-09-05 01:15:00
9:35 PM,77.0,73.4,89,30.09,10.0,Calm,Calm,-,N/A,,Scattered Clouds,0,2013-09-05 01:35:00
9:55 PM,77.0,73.4,89,30.10,10.0,Calm,Calm,-,N/A,,Scattered Clouds,0,2013-09-05 01:55:00
10:15 PM,77.0,73.4,89,30.10,10.0,Calm,Calm,-,N/A,,Clear,0,2013-09-05 02:15:00
10:35 PM,77.0,73.4,89,30.10,10.0,SSW,3.5,-,N/A,,Clear,210,2013-09-05 02:35:00
10:55 PM,77.0,73.4,89,30.11,10.0,Calm,Calm,-,N/A,,Clear,0,2013-09-05 02:55:00
11:15 PM,77.0,73.4,89,30.10,7.0,Calm,Calm,-,N/A,,Scattered Clouds,0,2013-09-05 03:15:00
11:35 PM,75.2,73.4,94,30.11,5.0,Calm,Calm,-,N/A,,Mostly Cloudy,0,2013-09-05 03:35:00
11:55 PM,77.0,75.2,94,30.10,7.0,Calm,Calm,-,N/A,,Mostly Cloudy,0,2013-09-05 03:55:00